Location: Biltmore Gardens
(41.6070°N, 83.4666°W)
Time: 14:15:40
(UTC+00:00)

USA 186 - Pass Details

Date: 14 July 2020
Orbit: 262 x 438 km, 96.9° (Epoch: 02 August)

Event Time Altitude Azimuth Distance (km) Brightness Sun altitude
Rises 01:51:53 0° 198° (SSW) 2,368 5.4 -7.7°
Reaches altitude 10° 01:54:18 10° 216° (SW) 1,484 4.5 -8.1°
Maximum altitude 01:56:40 19° 264° (W) 1,031 4.4 -8.4°
Drops below altitude 10° 01:58:58 10° 313° (NW) 1,433 6.2 -8.7°
Sets 02:01:16 0° 332° (NNW) 2,256 6.9 -9.1°
